Theta_e
300 301 301 302 303 304 304 309 310 313 317 310 312 313 308 307 306 305 303 301 305 306 305 307 309 309 308 307 305 305 304 303 303 304 304 305 308 309 310 310 310 310 308 308 308 310 314 311 310 310 309 310 310 311
301 301 302 302 302 303 304 306 309 311 315 311 309 311 308 304 306 306 304 301 302 305 304 305 308 309 309 309 309 306 306 305 304 303 304 303 309 307 309 310 308 311 309 310 310 311 311 312 311 312 310 311 311 311
300 301 301 302 302 302 304 309 309 309 312 315 309 307 310 306 305 308 304 302 302 305 304 306 306 307 309 309 308 308 305 306 305 306 304 301 304 304 307 306 308 307 308 309 310 311 311 311 311 310 309 310 310 310
300 301 301 300 301 303 302 304 307 309 312 315 313 306 307 306 305 309 306 302 301 303 303 302 303 304 306 308 308 308 307 306 306 306 304 300 302 304 301 303 303 305 306 306 306 307 310 312 310 310 310 310 310 310
299 300 301 301 299 302 303 302 306 307 311 311 315 308 309 306 303 308 308 303 302 301 302 304 304 305 305 304 305 307 306 306 305 305 302 302 303 303 302 302 304 305 305 306 306 308 310 309 311 310 310 311 310 310
299 299 300 300 299 299 302 302 304 305 306 310 313 311 309 308 308 312 306 305 305 302 305 303 304 305 307 308 307 306 306 307 306 306 304 305 305 304 298 301 304 305 305 306 306 306 307 307 306 308 308 308 310 310
299 299 300 300 300 300 301 301 302 305 304 308 310 313 308 308 311 309 305 304 306 303 304 303 303 304 304 304 305 306 307 307 306 306 305 305 305 306 297 305 305 307 307 307 306 305 305 306 307 308 309 309 310 310
299 299 299 299 302 301 301 301 301 302 304 308 310 308 311 309 310 307 303 303 304 303 304 303 301 303 304 303 303 304 305 305 305 305 304 303 304 304 302 304 305 305 305 305 306 306 306 306 306 306 306 307 309 309
299 299 299 299 301 303 302 301 301 302 305 306 309 306 314 311 308 305 303 306 305 303 303 301 300 300 303 303 304 304 305 302 304 302 301 303 300 301 304 304 305 305 305 305 305 305 305 305 306 306 306 307 308 309
299 299 299 300 300 302 302 301 301 303 304 308 308 310 308 308 305 305 306 305 303 303 303 299 303 300 303 303 302 302 303 298 297 300 303 299 300 304 304 304 305 305 305 305 305 305 306 306 307 307 307 307 308 308
299 299 299 299 300 302 302 301 301 303 304 307 307 303 302 304 304 304 302 301 301 303 302 303 303 301 303 302 303 303 299 300 299 301 301 301 301 303 307 306 306 304 304 305 305 306 306 308 308 308 308 308 307 307
299 299 299 299 299 301 301 301 301 302 306 307 304 302 304 304 300 301 302 302 302 304 303 301 303 304 305 305 303 303 303 297 303 301 300 304 303 307 307 306 307 306 306 304 304 306 306 307 307 307 308 308 308 308
299 299 298 298 300 301 301 301 301 302 304 303 303 301 300 300 302 304 305 304 305 303 304 303 303 305 306 307 304 302 302 301 301 299 303 304 304 307 307 306 306 307 307 306 305 304 306 307 306 307 307 307 308 308
299 298 299 298 299 300 301 301 302 303 303 300 299 300 302 301 303 302 303 303 303 304 304 305 304 305 305 304 302 302 301 298 299 301 303 300 304 305 305 305 306 308 308 308 308 307 307 307 307 307 307 307 307 308
298 298 299 299 298 299 300 302 304 302 301 299 299 304 302 301 302 303 304 304 303 304 304 305 302 303 300 301 297 299 300 300 301 303 301 303 305 305 304 306 307 308 308 308 308 307 307 307 307 306 306 306 306 307
298 298 299 298 298 299 301 303 304 301 300 299 299 302 300 301 300 303 304 303 304 304 305 304 302 302 300 299 300 301 301 302 302 300 304 305 305 307 306 307 307 307 307 307 306 306 305 304 304 304 304 304 305 307
300 300 298 298 298 299 301 302 302 300 300 298 299 302 303 302 303 303 304 304 304 305 304 301 302 302 296 295 299 298 301 301 302 305 304 305 307 307 307 307 307 306 305 304 304 303 303 302 301 303 303 303 304 305
300 300 298 298 299 301 299 300 300 299 298 299 301 302 303 303 303 303 304 304 305 305 303 303 300 302 298 298 299 299 300 303 305 305 306 304 306 307 306 305 305 304 304 304 305 305 304 302 302 304 304 303 303 304
301 299 299 299 299 301 300 299 300 299 300 300 302 304 304 303 304 304 304 304 305 305 304 303 301 299 299 298 299 301 303 304 305 304 305 305 307 307 306 304 303 303 303 305 304 303 304 303 304 305 304 303 304 302
300 299 299 299 300 301 298 297 299 301 301 304 304 303 303 303 303 303 304 304 304 304 304 301 300 301 302 304 304 306 307 305 304 305 306 306 307 306 305 304 303 302 303 304 303 304 305 304 303 304 304 304 303 302
299 300 300 300 301 300 299 298 299 301 302 304 303 303 303 303 303 303 303 304 305 303 300 303 305 306 306 306 306 306 306 306 304 306 307 306 305 306 304 302 302 302 302 303 303 303 304 304 304 303 302 302 302 302
302 300 300 301 300 298 297 298 299 300 301 303 302 302 303 303 303 303 303 303 302 305 305 306 306 306 305 305 306 306 305 304 305 306 307 307 306 306 304 303 302 301 301 302 302 303 303 303 303 302 302 301 301 300
299 300 300 300 297 297 296 299 299 300 301 300 302 301 301 301 303 303 302 302 303 305 305 306 306 306 306 305 305 305 305 304 305 307 307 307 308 307 304 303 302 302 301 301 301 302 302 302 301 301 301 301 300 299
299 300 298 298 297 296 297 295 299 300 299 301 301 302 302 301 302 301 301 298 304 305 305 305 305 305 305 305 305 305 306 305 305 307 307 307 307 304 303 303 302 302 302 301 301 301 301 302 301 300 300 299 299 298
298 297 297 296 295 290 294 299 299 298 302 301 300 301 300 301 302 302 300 299 303 304 305 305 305 305 306 306 306 306 306 306 307 307 306 306 305 304 302 302 301 301 302 302 301 301 301 301 301 300 299 299 298 297
298 296 294 295 295 295 296 298 299 299 299 300 300 298 297 296 297 301 299 302 303 303 304 305 305 305 306 305 305 306 306 306 307 306 306 305 305 306 305 304 302 301 301 302 302 302 301 301 300 300 299 298 298 297
297 296 296 296 297 297 296 297 298 297 298 297 297 297 299 302 302 299 303 305 304 304 304 305 305 305 305 306 305 305 305 306 306 306 305 305 304 304 304 305 305 305 303 302 302 302 301 301 300 299 299 298 298 297
296 296 298 295 297 298 297 300 300 299 297 296 297 297 298 299 299 303 305 306 305 305 305 305 305 305 305 305 305 305 305 306 306 305 304 303 302 301 301 301 301 303 304 304 303 302 302 301 300 300 299 299 299 298
294 297 298 294 296 296 296 299 299 299 300 298 298 298 298 301 304 305 305 305 305 304 304 304 304 305 304 304 304 305 305 306 306 304 303 302 300 300 300 299 298 299 300 302 302 303 303 302 301 301 300 299 299 299
296 298 298 297 295 298 297 299 300 300 301 301 301 300 301 303 305 304 303 303 304 304 304 304 304 304 304 304 304 304 305 305 305 304 302 302 302 302 301 299 299 298 298 299 300 301 301 301 301 300 300 299 299 298
298 298 294 293 290 295 296 298 299 299 299 300 300 300 301 302 303 303 302 303 303 303 303 303 303 304 304 304 304 304 304 304 305 303 303 304 304 303 303 301 300 299 299 298 298 300 300 300 300 301 301 301 300 300
296 295 295 293 292 297 297 298 298 298 298 298 298 298 297 298 299 303 304 302 302 303 303 304 303 303 304 306 307 306 304 304 304 304 303 304 304 304 304 303 301 300 299 298 298 298 298 299 300 300 301 302 301 301
296 295 295 293 290 292 297 297 294 291 294 294 295 297 298 298 298 301 303 302 302 303 303 303 304 303 304 304 305 304 303 304 304 304 304 304 304 304 304 304 301 300 299 299 298 298 298 298 298 299 299 301 302 301
Wind_Speed
30 29 28 29 30 28 30 48 44 28 52 44 42 41 39 40 41 43 44 41 28 14 10 15 15 14 12 10 5 7 3 1 3 2 3 3 3 3 3 2 5 6 6 4 3 2 6 5 3 5 4 6 6 6
27 26 25 28 30 29 29 30 38 43 21 48 39 39 39 39 42 43 42 41 36 21 7 21 17 18 17 12 12 12 5 6 9 3 2 1 2 1 2 3 2 3 5 3 8 5 4 6 7 6 8 8 7 7
29 27 27 26 28 29 32 27 36 43 29 47 46 39 39 38 41 44 44 37 30 23 17 18 17 23 19 17 16 9 6 8 7 6 6 2 4 2 3 5 3 3 2 3 2 3 4 9 8 8 9 9 7 7
29 31 30 29 28 29 29 28 27 35 43 25 50 42 36 35 40 42 45 36 38 13 6 7 20 27 19 18 18 19 13 12 9 8 4 3 3 7 3 5 5 6 1 2 6 8 15 10 13 10 11 7 5 5
31 31 30 29 29 28 29 31 26 27 43 15 51 57 49 38 36 38 42 36 35 26 8 5 10 13 17 24 25 22 20 17 8 4 2 3 5 2 4 3 9 13 11 7 10 12 7 5 4 13 12 8 6 6
32 33 31 30 31 29 30 30 29 26 30 37 21 50 49 47 40 41 17 33 36 36 5 1 3 9 17 16 17 17 18 15 11 6 5 7 7 7 3 4 7 20 33 36 36 20 21 23 20 18 19 19 12 8
31 32 31 30 30 30 31 31 30 27 23 38 24 35 55 52 47 48 13 19 42 36 7 2 3 7 15 14 13 13 13 9 8 6 7 6 5 10 3 11 5 14 22 29 32 29 23 27 17 8 11 15 15 12
32 31 30 29 27 29 31 31 32 29 22 25 35 11 60 56 50 39 13 21 45 29 8 3 2 5 17 8 6 9 8 10 8 6 4 4 6 7 6 13 23 36 43 40 33 27 28 23 21 27 23 15 16 17
29 30 31 31 28 30 31 31 31 29 26 27 34 15 64 55 30 34 20 41 37 13 13 6 7 5 17 6 7 7 7 2 5 4 5 8 3 6 12 18 27 29 29 31 30 30 33 32 26 27 27 25 23 21
31 30 30 30 30 29 30 31 31 30 27 25 29 19 10 33 43 38 32 15 10 8 7 5 11 3 13 7 4 8 6 3 2 5 6 4 5 39 22 30 36 29 27 28 27 22 19 14 16 12 20 24 26 22
32 31 30 29 28 30 31 31 32 30 25 27 17 3 33 55 48 8 10 8 9 6 12 13 21 7 12 4 3 8 4 3 2 4 5 3 5 8 24 32 32 35 35 32 31 24 21 17 14 15 15 15 20 25
31 30 30 29 29 30 32 31 32 30 17 24 14 36 40 15 7 6 5 7 7 10 14 13 20 16 12 9 5 8 4 2 5 6 2 4 5 18 18 20 18 15 18 29 33 30 26 24 19 18 19 20 20 23
29 29 28 26 27 29 31 31 33 32 23 27 12 13 10 8 6 10 11 6 8 10 16 29 14 15 8 6 5 3 5 6 6 2 5 6 8 15 19 14 15 14 11 11 17 26 28 25 23 20 19 17 19 19
28 27 27 27 26 27 28 30 30 36 27 9 10 7 6 5 7 8 5 7 9 23 37 41 16 8 7 4 3 5 5 3 2 4 8 4 20 19 14 12 16 14 13 11 11 13 16 19 21 21 20 19 20 23
26 26 26 25 26 26 31 32 40 41 13 6 6 5 6 5 4 13 22 22 28 42 43 27 11 7 2 4 3 4 3 6 7 6 4 9 4 9 10 10 12 16 15 15 15 18 20 22 22 22 20 21 23 26
25 23 27 26 27 27 31 31 34 22 6 7 7 4 5 6 3 14 30 27 40 43 41 15 5 5 4 5 5 8 7 9 6 4 18 12 11 9 11 13 14 14 15 17 19 22 23 24 23 20 18 23 25 30
24 28 30 29 28 27 29 29 19 8 7 4 3 12 12 10 14 21 35 38 48 42 12 4 7 7 4 4 4 5 7 4 10 16 17 15 13 13 13 13 13 13 13 14 14 12 10 10 13 17 20 25 30 33
32 34 28 30 27 27 13 19 8 7 5 8 3 11 21 22 30 29 30 49 50 32 17 6 11 5 6 9 5 5 12 10 12 16 13 21 18 14 11 9 8 8 7 3 4 7 15 15 21 23 23 28 30 30
32 33 30 32 34 19 5 8 6 4 5 5 6 12 14 26 36 38 41 48 41 31 23 10 4 5 5 6 6 13 16 22 21 20 17 19 17 13 10 8 8 6 4 4 9 15 16 15 22 25 27 29 29 30
26 28 28 35 34 8 6 4 9 6 3 3 5 19 22 26 32 37 45 46 34 18 5 4 5 7 8 17 17 16 21 22 24 21 22 22 18 13 9 9 10 9 10 10 15 17 20 21 22 27 26 28 28 31
27 28 31 39 21 4 4 6 5 5 7 5 13 14 11 27 29 28 33 39 17 8 3 9 15 12 11 5 10 14 16 19 31 31 33 27 21 15 12 12 12 12 13 16 20 23 21 24 26 25 26 28 27 28
19 36 31 28 5 8 5 5 9 10 5 6 13 5 11 9 11 19 29 19 7 16 12 13 16 21 17 11 10 15 14 19 24 25 28 26 24 20 17 15 16 16 16 18 21 23 23 22 24 24 24 25 25 27
23 31 17 8 4 3 3 12 5 4 4 3 5 4 2 3 11 22 5 10 7 22 23 17 16 18 17 14 13 15 16 21 26 26 26 25 22 18 16 16 15 17 19 19 19 20 21 21 22 22 23 25 27 27
13 11 6 7 4 4 8 3 5 5 4 3 2 5 4 3 16 2 4 4 22 17 30 21 22 21 20 19 20 22 22 24 28 25 23 23 22 20 17 15 15 14 15 19 20 21 21 22 23 24 26 28 29 27
4 4 6 4 4 5 3 4 3 3 3 3 2 3 3 7 3 4 4 6 28 32 32 34 25 30 31 26 25 24 25 29 33 29 26 25 25 22 19 16 15 15 18 21 22 23 24 25 25 26 27 27 26 25
3 6 6 5 3 5 5 5 5 5 4 3 2 4 4 3 4 5 5 19 30 35 39 41 38 35 33 33 33 31 32 32 30 32 32 29 26 25 24 24 23 22 22 20 21 25 26 26 26 27 27 26 24 22
4 4 3 3 7 9 5 5 6 4 4 6 5 5 3 4 5 4 8 33 35 44 45 48 44 43 41 39 35 32 32 33 36 35 31 28 25 21 18 18 19 18 21 23 23 23 24 26 26 26 26 25 23 21
3 6 7 6 4 2 6 5 5 6 4 6 7 5 9 9 6 9 12 25 43 43 47 49 50 44 39 38 36 33 32 34 33 33 32 29 26 21 17 13 11 14 16 19 21 22 22 22 24 25 25 24 22 21
2 7 9 1 3 3 3 5 5 8 16 14 6 4 4 8 9 16 23 29 38 39 43 44 44 42 35 35 36 37 37 41 40 39 40 37 33 29 23 19 18 19 19 20 19 18 18 19 20 21 21 22 22 21
4 12 4 3 4 3 2 4 10 20 16 16 10 6 7 11 19 20 16 26 34 39 44 46 46 46 42 41 39 39 39 42 44 46 44 42 39 31 28 25 22 20 21 21 22 21 20 19 20 21 23 24 25 26
14 7 4 3 2 2 4 10 15 13 10 10 10 8 11 9 18 19 16 27 29 29 34 39 40 45 45 45 47 47 45 47 47 47 44 39 33 32 29 25 23 21 21 22 23 24 24 23 24 24 24 24 25 27
4 3 4 3 1 4 7 3 4 4 4 5 4 6 5 4 6 15 22 23 31 32 32 36 40 48 51 49 47 48 50 48 51 49 45 40 36 32 26 24 23 23 22 23 23 23 24 24 23 22 22 23 22 23
5 5 5 5 3 2 4 4 3 2 3 1 2 5 7 5 6 8 13 23 30 35 38 37 39 38 45 46 45 43 42 43 44 44 41 37 32 31 28 28 26 24 24 25 25 23 22 23 24 23 21 21 21 20
Wind_Direction
246 248 248 247 253 260 259 249 259 265 212 216 218 218 218 213 213 211 214 210 207 214 219 202 201 172 163 179 148 156 102 198 80 144 162 244 202 266 322 226 182 174 160 202 157 199 270 185 114 179 210 162 188 198
242 244 248 249 246 247 251 242 251 244 238 210 216 217 215 210 211 209 214 213 211 214 224 226 222 215 212 225 203 177 183 161 179 127 186 311 282 301 183 254 314 244 193 202 184 213 239 216 228 208 184 184 191 218
243 245 246 247 249 243 244 230 240 243 248 204 207 212 212 209 206 208 211 210 202 209 233 241 221 216 214 216 224 191 206 197 186 190 161 176 237 139 216 236 248 243 167 214 25 275 251 236 220 211 200 198 201 221
241 244 247 248 244 244 247 249 239 231 232 215 202 201 200 208 207 203 209 208 204 181 212 239 229 227 223 225 223 220 229 191 174 184 183 164 177 199 237 256 205 208 34 216 258 279 289 267 233 224 199 198 208 212
241 243 244 246 247 243 239 236 239 235 225 236 207 206 204 207 207 202 210 210 205 188 177 188 205 213 219 226 231 230 220 198 178 166 159 222 216 176 251 293 247 203 218 209 253 217 218 205 324 207 205 217 227 213
242 244 245 245 247 244 238 232 234 236 240 228 198 201 201 201 193 188 198 210 200 199 181 160 182 198 201 200 201 205 211 213 205 186 202 232 207 186 209 245 251 228 231 234 245 242 258 274 284 258 256 255 243 242
238 241 244 246 245 241 234 233 232 233 243 218 218 214 200 193 189 180 192 199 188 190 170 170 220 185 190 189 191 196 196 194 194 202 230 217 193 205 240 249 219 225 232 246 250 250 250 245 248 242 232 228 228 223
237 237 239 242 240 232 229 227 227 229 227 213 211 274 200 200 188 185 193 176 173 169 167 153 251 175 180 155 147 175 162 177 205 220 228 205 199 216 248 250 247 247 247 252 251 243 241 250 254 262 266 246 229 215
233 233 233 236 236 230 226 224 222 219 219 217 213 252 183 180 176 173 175 166 167 162 162 161 167 204 172 135 137 143 157 140 213 219 234 172 206 227 230 235 239 238 233 245 253 250 253 257 255 246 241 227 224 219
239 231 230 228 232 225 222 219 215 215 218 209 208 190 163 169 156 147 140 152 157 207 215 197 188 165 162 135 146 131 164 197 194 230 181 203 243 249 261 256 256 252 245 244 242 238 236 241 213 219 218 216 218 218
228 227 225 224 224 222 218 215 211 210 214 211 182 175 146 149 140 146 140 151 157 186 206 187 182 141 172 131 146 188 170 162 194 246 177 232 256 238 264 260 267 257 250 244 242 238 240 228 228 234 234 225 223 226
220 220 220 222 221 218 213 211 209 205 207 201 169 139 138 145 126 151 155 151 184 200 182 166 161 144 149 158 124 175 163 109 235 158 170 251 240 262 273 262 261 262 257 241 234 233 233 243 236 256 247 238 231 228
215 216 216 216 215 213 208 210 206 205 197 144 158 171 167 172 140 168 169 185 186 168 163 155 148 140 132 157 116 152 152 207 133 162 231 240 247 259 259 266 269 257 227 226 226 225 227 238 250 231 237 232 226 222
212 215 214 214 211 210 207 199 201 194 168 162 169 182 184 179 195 201 162 123 115 134 148 149 137 129 126 124 149 144 202 104 200 232 237 235 243 260 270 267 256 215 204 200 199 201 208 213 224 233 241 233 225 218
214 215 212 212 208 209 201 197 179 179 179 173 163 203 201 183 153 161 145 125 142 148 148 145 84 93 98 119 197 97 125 228 213 227 230 229 274 276 243 225 204 201 206 213 220 226 235 241 243 245 239 228 221 211
214 211 213 208 205 202 198 194 195 189 195 187 201 162 170 114 134 148 145 137 151 149 145 139 124 138 185 152 148 205 176 219 226 210 233 238 243 213 201 198 206 218 232 245 251 253 251 247 244 237 222 214 208 203
209 207 207 198 196 194 193 196 199 161 192 199 234 210 187 126 139 147 149 150 155 150 159 139 141 183 108 131 201 193 216 216 176 218 218 200 190 182 188 204 227 247 256 259 263 251 234 217 207 196 197 192 193 194
207 202 200 190 182 184 178 180 166 163 174 199 204 191 189 150 141 147 157 157 159 165 160 165 126 157 178 174 225 220 208 193 205 208 200 191 194 198 210 226 234 235 243 245 274 240 203 186 181 170 183 182 180 179
191 194 188 181 179 170 135 149 173 166 205 187 181 182 166 152 157 156 160 166 169 170 147 139 146 184 206 212 194 193 197 209 201 196 194 190 193 199 211 209 206 194 157 144 164 166 151 168 171 164 173 173 173 173
173 180 175 183 180 164 134 147 146 142 169 191 171 172 151 156 162 163 164 169 173 162 173 191 193 211 217 217 207 212 226 216 193 175 176 181 186 191 195 195 184 167 152 160 170 159 150 156 170 171 175 173 174 174
157 169 173 174 175 165 122 153 145 168 142 113 122 124 148 157 158 164 169 172 174 212 189 195 203 216 207 207 220 222 219 202 194 193 182 176 180 184 185 180 178 168 167 172 170 164 165 169 172 179 177 176 180 178
149 168 157 174 131 174 175 141 140 116 101 133 123 103 146 154 162 170 171 185 224 203 200 196 204 206 198 197 204 204 212 198 198 200 191 184 175 184 191 186 177 172 176 180 178 171 168 176 177 178 180 180 179 176
151 160 155 143 146 105 119 133 78 136 131 130 121 108 145 137 169 160 179 217 223 208 208 212 217 209 197 195 193 199 205 200 192 190 190 192 191 192 188 183 181 176 173 179 184 180 172 174 178 179 177 175 173 176
156 148 155 135 129 114 152 132 125 120 110 141 146 120 130 117 154 161 215 204 201 195 198 204 204 191 188 189 193 201 201 196 190 189 194 186 183 185 187 179 182 181 181 171 174 175 171 171 175 176 174 175 179 183
158 142 127 99 126 106 123 123 123 101 113 122 117 119 142 142 170 205 201 197 193 201 203 203 202 198 193 191 196 201 197 189 188 184 182 186 177 171 172 177 183 181 182 180 176 176 173 173 175 176 179 184 188 190
164 195 153 153 152 134 158 119 153 147 129 121 124 132 141 130 175 224 190 191 189 194 198 198 197 197 199 200 193 194 192 190 195 187 184 185 184 180 176 176 179 184 187 190 185 180 179 179 181 183 186 189 193 194
174 187 187 181 157 139 98 95 114 111 145 157 161 158 145 190 228 233 189 198 199 204 202 203 201 206 205 203 201 202 197 193 196 193 185 182 186 189 187 183 186 186 182 183 189 192 188 186 188 190 192 194 198 199
179 161 168 182 142 122 119 114 147 173 159 154 130 168 175 195 215 187 200 208 210 209 206 207 208 211 208 209 204 206 197 195 194 191 186 183 184 186 184 189 191 185 187 186 187 190 197 201 199 198 200 200 199 200
175 176 134 122 115 115 163 157 178 178 154 166 170 164 213 197 201 202 204 206 202 203 198 200 201 204 202 208 208 210 202 195 189 186 189 186 187 189 186 186 188 189 189 190 190 195 197 201 206 211 212 212 211 210
161 173 118 138 119 168 180 173 161 158 165 172 173 160 187 195 204 214 210 188 191 199 203 202 199 195 194 198 199 206 208 203 201 197 193 195 194 187 188 189 191 194 196 194 193 191 193 201 207 211 214 215 216 217
144 142 85 45 92 42 95 122 136 141 139 166 170 188 193 201 212 220 205 199 194 193 191 190 193 193 195 196 201 202 203 204 205 208 208 205 198 199 199 199 200 199 200 201 199 199 200 200 203 206 210 213 216 219
96 90 118 99 49 103 120 80 102 107 125 167 168 192 204 195 226 213 222 209 199 201 201 199 196 195 203 209 210 208 207 203 204 208 211 212 209 206 206 206 206 205 204 205 204 205 207 211 213 213 215 217 218 221
88 91 108 107 58 57 116 113 52 40 35 108 148 179 193 221 233 239 225 222 219 210 207 207 211 204 203 204 209 208 207 209 208 207 211 214 215 214 216 216 213 208 209 208 205 206 208 212 215 218 221 220 221 223